DW8494 Seminole FL US current weather conditions

sailwx.info

Wind from 327 at 3 knots gusting 8

Air temperature 5.0° C
Dewpoint 2.4° C

Last reported at 2020-Feb-22 10:00 UTC.
Time now 2020-Feb-22 10:32 UTC

Location: N 27°51' W 082°47'.
View on Google Maps.

See reports from other nearby stations

  
Tides and Currents Weather Stations Pressure Air Temp Water Temp Dewpoint Dewpoint Depression Visibility Wind Speed Wind Dir Waves Ship Positions
date/time (UTC)wind fromknots sea level pressurealtimeterstation pressurevisibilityair tempwater tempwave heightnotes
2020-Feb-22 10:00 327 3 gusting 8 5.0
2020-Feb-22 09:45 304 3 gusting 10 5.0
2020-Feb-22 09:30 333 0 gusting 9 5.0
2020-Feb-22 09:15 298 0 gusting 7 5.0
2020-Feb-22 08:46 329 1 gusting 9 5.6
2020-Feb-22 08:31 301 2 gusting 6 5.6
2020-Feb-22 08:16 280 1 gusting 7 5.6
2020-Feb-22 08:00 346 3 gusting 8 5.6
2020-Feb-22 07:45 325 2 gusting 10 5.6
2020-Feb-22 07:30 338 2 gusting 9 5.6
2020-Feb-22 07:15 346 2 gusting 10 6.1
2020-Feb-22 07:00 329 1 gusting 11 6.1
2020-Feb-22 06:45 300 5 gusting 12 6.1
2020-Feb-22 06:30 319 3 gusting 10 6.1
2020-Feb-22 06:15 332 3 gusting 13 6.1
2020-Feb-22 06:00 298 4 gusting 11 6.7
2020-Feb-22 05:45 277 4 gusting 11 6.7
2020-Feb-22 05:30 344 4 gusting 12 6.7
2020-Feb-22 05:15 292 2 gusting 15 6.7
2020-Feb-22 05:00 341 5 gusting 12 6.7
2020-Feb-22 04:45 242 5 gusting 13 6.7
2020-Feb-22 04:30 306 1 gusting 13 7.2
2020-Feb-22 04:15 298 6 gusting 13 7.2
2020-Feb-22 04:02 308 6 gusting 12 7.2
2020-Feb-22 03:46 327 4 gusting 11 7.2
2020-Feb-22 03:31 329 2 gusting 11 7.2
2020-Feb-22 03:16 302 8 gusting 16 7.8
2020-Feb-22 03:01 313 6 gusting 17 7.8
2020-Feb-22 02:46 346 6 gusting 13 8.3
2020-Feb-22 02:31 331 4 gusting 11 8.3
2020-Feb-22 02:16 341 6 gusting 13 8.3
2020-Feb-22 02:01 355 4 gusting 12 8.9
2020-Feb-22 01:46 340 6 gusting 13 8.9
2020-Feb-22 01:30 309 6 gusting 13 8.9
2020-Feb-22 01:16 321 3 gusting 13 8.9
2020-Feb-22 01:00 292 6 gusting 13 8.9
2020-Feb-22 00:45 296 5 gusting 13 8.9
2020-Feb-22 00:30 342 6 gusting 13 8.9
2020-Feb-22 00:15 256 6 gusting 14 9.4
2020-Feb-22 00:00 331 6 gusting 12 9.4
2020-Feb-21 23:45 240 6 gusting 12 9.4
2020-Feb-21 23:30 313 5 gusting 15 9.4
2020-Feb-21 23:15 022 6 gusting 13 10.0
2020-Feb-21 23:02 331 5 gusting 13 10.0
2020-Feb-21 22:46 005 6 gusting 13 10.6
2020-Feb-21 22:31 329 6 gusting 13 10.6
2020-Feb-21 22:16 344 5 gusting 15 11.1
2020-Feb-21 22:01 346 4 gusting 14 11.1
2020-Feb-21 21:47 290 5 gusting 13 11.7
2020-Feb-21 21:31 317 6 gusting 13 11.7
2020-Feb-21 21:17 288 6 gusting 13 12.2
2020-Feb-21 21:02 312 3 gusting 12 12.8
2020-Feb-21 20:45 287 4 gusting 13 12.8
2020-Feb-21 20:31 284 4 gusting 12 13.3
2020-Feb-21 20:16 348 4 gusting 12 13.9
2020-Feb-21 20:00 313 6 gusting 13 13.9
2020-Feb-21 19:46 289 5 gusting 12 14.4
2020-Feb-21 19:31 355 6 gusting 12 15.0
2020-Feb-21 19:15 348 5 gusting 11 14.4
2020-Feb-21 19:01 301 4 gusting 9 15.0
2020-Feb-21 18:45 331 3 gusting 12 15.6
2020-Feb-21 18:30 286 5 gusting 13 15.6
2020-Feb-21 18:16 360 6 gusting 14 15.6
2020-Feb-21 18:01 329 5 gusting 12 15.6
2020-Feb-21 17:46 317 3 gusting 14 15.6
2020-Feb-21 17:30 329 5 gusting 13 15.0
2020-Feb-21 17:15 287 3 gusting 13 15.0
2020-Feb-21 17:01 268 5 gusting 12 14.4
2020-Feb-21 16:45 355 2 gusting 13 13.9
2020-Feb-21 16:30 343 2 gusting 10 14.4
2020-Feb-21 16:15 289 6 gusting 15 13.3
2020-Feb-21 16:00 329 3 gusting 12 12.8
2020-Feb-21 15:45 288 3 gusting 12 12.8
2020-Feb-21 15:31 319 3 gusting 13 12.8
2020-Feb-21 15:17 336 6 gusting 14 11.7
2020-Feb-21 15:01 272 5 gusting 13 11.7
2020-Feb-21 14:46 302 6 gusting 12 11.1
2020-Feb-21 14:32 334 6 gusting 13 10.6
2020-Feb-21 14:16 324 4 gusting 10 10.6
2020-Feb-21 14:01 300 3 gusting 13 11.1
2020-Feb-21 13:45 318 5 gusting 15 10.6
2020-Feb-21 13:30 345 5 gusting 13 11.1
2020-Feb-21 13:15 290 3 gusting 14 11.1
2020-Feb-21 13:00 323 4 gusting 11 11.1
2020-Feb-21 12:45 309 4 gusting 8 11.7
2020-Feb-21 12:30 281 6 gusting 13 11.1
2020-Feb-21 12:15 325 4 gusting 12 11.7
2020-Feb-21 12:00 306 6 gusting 12 11.7
2020-Feb-21 11:45 333 6 gusting 13 12.2
2020-Feb-21 11:30 304 6 gusting 16 12.2
2020-Feb-21 11:16 338 6 gusting 16 12.2
2020-Feb-21 11:01 308 5 gusting 13 12.8
2020-Feb-21 10:46 355 6 gusting 13 13.3
2020-Feb-21 10:31 321 3 gusting 10 14.4
2020-Feb-21 10:16 297 4 gusting 13 15.0
2020-Feb-21 10:01 319 6 gusting 17 16.7
2020-Feb-21 09:46 274 3 gusting 8 18.3
2020-Feb-21 09:31 263 0 gusting 6 18.3
2020-Feb-21 09:16 255 0 gusting 6 18.3
2020-Feb-21 09:00 274 1 gusting 10 18.9
2020-Feb-21 08:45 267 1 gusting 12 19.4
2020-Feb-21 08:30 249 0 gusting 9 19.4
2020-Feb-21 08:16 292 2 gusting 10 19.4
2020-Feb-21 07:45 239 4 gusting 13 21.1
2020-Feb-21 07:30 202 2 gusting 7 21.7
2020-Feb-21 07:15 190 3 gusting 7 21.7
2020-Feb-21 07:00 217 4 gusting 7 21.7
2020-Feb-21 06:47 180 2 gusting 6 21.7
2020-Feb-21 06:32 182 4 gusting 7 21.7
2020-Feb-21 06:16 198 3 gusting 6 21.7
2020-Feb-21 06:01 190 2 gusting 6 21.7
2020-Feb-21 05:46 179 3 gusting 6 21.7
2020-Feb-21 05:15 160 1 gusting 4 21.7
2020-Feb-21 05:00 184 2 gusting 6 21.7
2020-Feb-21 04:45 186 2 gusting 6 21.7
2020-Feb-21 04:30 188 1 gusting 6 21.7
2020-Feb-21 04:15 194 2 gusting 5 21.7
2020-Feb-21 04:00 197 1 gusting 5 21.7
2020-Feb-21 03:45 182 0 gusting 4 21.7
2020-Feb-21 03:30 213 1 gusting 4 21.7
2020-Feb-21 03:15 209 21.7
2020-Feb-21 03:00 202 2 gusting 4 21.7
2020-Feb-21 02:45 207 0 gusting 4 21.7
2020-Feb-21 02:30 222 1 gusting 6 21.7
2020-Feb-21 02:15 211 1 gusting 4 21.7
2020-Feb-21 02:00 201 1 gusting 5 21.7
2020-Feb-21 01:45 219 1 gusting 4 21.7
2020-Feb-21 01:30 202 1 gusting 5 21.7
2020-Feb-21 01:15 217 1 gusting 5 21.7
2020-Feb-21 01:00 221 0 gusting 4 21.7
2020-Feb-21 00:45 215 2 gusting 6 21.7
2020-Feb-21 00:30 205 2 gusting 6 21.7
2020-Feb-21 00:15 213 1 gusting 5 22.2
2020-Feb-21 00:00 194 3 gusting 6 22.2
2020-Feb-20 23:45 201 2 gusting 7 22.2
2020-Feb-20 23:30 198 3 gusting 6 22.8
2020-Feb-20 23:15 179 4 gusting 7 23.3
2020-Feb-20 23:00 202 4 gusting 8 23.3
2020-Feb-20 22:45 200 3 gusting 8 23.9
2020-Feb-20 22:30 192 4 gusting 8 24.4
2020-Feb-20 22:15 195 5 gusting 9 25.0
2020-Feb-20 22:01 215 4 gusting 10 25.0
2020-Feb-20 21:45 209 5 gusting 8 25.6
2020-Feb-20 21:30 176 4 gusting 8 25.6
2020-Feb-20 21:15 214 5 gusting 8 25.6
2020-Feb-20 21:00 219 5 gusting 8 26.1
2020-Feb-20 20:45 205 3 gusting 9 26.1
2020-Feb-20 20:30 202 6 gusting 8 26.1
2020-Feb-20 20:15 170 6 gusting 11 26.1
2020-Feb-20 20:02 155 4 gusting 9 26.1
2020-Feb-20 19:47 184 6 gusting 13 26.1
2020-Feb-20 19:32 167 5 gusting 11 26.7
2020-Feb-20 19:16 178 5 gusting 13 26.7
2020-Feb-20 19:01 207 5 gusting 12 27.2
2020-Feb-20 18:46 175 5 gusting 8 27.2
2020-Feb-20 18:31 175 6 gusting 13 27.2
2020-Feb-20 18:16 176 4 gusting 14 27.8
2020-Feb-20 18:01 156 4 gusting 12 27.8
2020-Feb-20 17:48 165 4 gusting 8 28.3
2020-Feb-20 17:30 194 4 gusting 13 27.8
2020-Feb-20 17:17 194 5 gusting 8 28.3
2020-Feb-20 17:02 101 2 gusting 9 27.8
2020-Feb-20 16:46 159 2 gusting 6 28.3
2020-Feb-20 16:31 134 1 gusting 7 27.8
2020-Feb-20 16:15 094 1 gusting 6 26.7
2020-Feb-20 16:00 164 24.4
2020-Feb-20 15:45 080 1 gusting 7 23.9
2020-Feb-20 15:30 114 0 gusting 6 23.9
2020-Feb-20 15:15 128 2 gusting 6 23.3
2020-Feb-20 15:00 056 3 gusting 7 23.3
2020-Feb-20 14:45 078 1 gusting 5 23.3
2020-Feb-20 14:30 087 0 gusting 6 22.8
2020-Feb-20 14:16 071 0 gusting 5 22.8
2020-Feb-20 14:01 075 0 gusting 6 22.2
2020-Feb-20 13:48 023 2 gusting 7 22.2
2020-Feb-20 13:31 058 0 gusting 6 22.2
2020-Feb-20 13:17 068 3 gusting 7 21.7
2020-Feb-20 13:01 036 3 gusting 6 21.7
2020-Feb-20 12:46 046 0 gusting 6 21.7
2020-Feb-20 12:30 042 1 gusting 4 21.7
2020-Feb-20 12:15 019 0 gusting 5 21.7
2020-Feb-20 12:00 042 1 gusting 4 21.1
2020-Feb-20 11:45 082 1 gusting 5 21.1
2020-Feb-20 11:30 041 21.1
2020-Feb-20 11:15 026 0 gusting 4 21.1
2020-Feb-20 11:00 051 0 gusting 3 21.1
2020-Feb-20 10:45 035 21.1
2020-Feb-20 10:30 325 0 gusting 4 21.1
2020-Feb-20 10:15 317 0 gusting 5 20.6
2020-Feb-20 10:00 036 1 gusting 5 20.6